Location: *
(12.5665°N, 8.3471°E)
Time: 04:46:18
(UTC+00:00)

Daily predictions for brighter satellites

Satellite Brightness Start Highest point End
(mag) Time Altitude Azimuth Time Altitude Azimuth Time Altitude Azimuth
USA 215 4.2 02:32:12 10° NE 02:36:19 42° NE 02:36:19 42° NE
DELTA-4 R/B 4.2 02:48:03 76° ESE 02:48:03 76° ESE 02:52:10 10° E
Lacrosse 5 rocket 3.7 03:02:06 24° ESE 03:02:06 24° ESE 03:04:17 10° SE
CZ-2C R/B 3.7 03:08:52 10° NNE 03:13:36 39° E 03:18:25 10° S
Cosmos 1655 Rocket 4.4 03:27:56 45° NNW 03:27:56 45° NNW 03:32:23 10° N
Delta 2 Rocket 4.2 03:28:06 61° N 03:28:06 61° N 03:33:22 10° NE
Timation 2 Rocket 4.4 03:23:54 10° N 03:29:44 58° ENE 03:35:41 10° SSE
Cosmos 1833 4.1 03:31:15 65° SSW 03:31:15 65° SSW 03:36:13 10° S
Cosmos 1680 Rocket 3.9 03:33:06 49° NNW 03:33:06 49° NNW 03:37:03 10° N
Cosmos 1536 4.1 03:34:07 33° SSE 03:34:07 33° SSE 03:36:31 10° SSE
ATLAS 3B CENTAUR R/B 3.8 03:34:09 33° SW 03:34:09 33° SW 03:38:56 10° SSE
COSMOS 2441 4.5 03:34:42 10° N 03:38:51 57° NW 03:38:51 57° NW
GPS 2-04 Rocket1 4.0 03:41:51 30° SSE 03:41:51 30° SSE 03:44:16 10° SE
S3M 4.2 03:35:11 10° N 03:41:25 70° E 03:47:43 10° S
Cosmos 1656 3.6 03:45:21 44° SW 03:47:01 63° WNW 03:52:38 10° N
SeaSat 1 4.5 03:44:34 10° NNW 03:45:25 14° NNW 03:45:25 14° NNW
Okean O Rocket 4.4 03:47:37 10° NE 03:50:43 19° E 03:53:49 10° SE
Stardust Del rocket 4.1 03:55:19 25° SE 03:55:19 25° SE 03:56:46 10° E
Ariane 3 Deb 4.2 03:53:49 33° WSW 03:56:35 61° S 04:24:10 10° E
Cosmos 2266 Rocket 4.0 03:50:53 10° SSW 03:56:49 52° W 04:02:41 10° N
H-II Stage 2 4.4 03:56:07 13° NNW 03:59:51 36° NE 04:18:16 10° E
Cosmos 2084 Rocket 4.1 03:57:31 10° NNW 04:01:45 55° ENE 04:05:55 10° SE
Meteor PRIRODA 3.6 03:59:07 10° NNE 04:02:49 86° E 04:06:33 10° S
Cosmos 1782 Rocket 3.9 03:59:17 10° N 04:03:39 66° E 04:08:04 10° SSE
Cosmos 2278 3.8 03:58:01 10° S 04:03:39 76° ESE 04:09:16 10° NNE
Delta 128 4.4 04:04:16 30° WNW 04:05:45 38° NNW 04:10:01 10° NE
SL-4 R/B 4.0 04:04:00 10° N 04:07:05 25° NE 04:10:21 10° ESE
PSLV R/B 4.2 04:03:17 10° S 04:07:15 42° W 04:11:10 10° NNW
Atlas Centaur 2 3.3 04:02:42 15° NW 04:08:14 55° NNE 04:16:07 10° ESE
Hubble Space Telescope 2.3 04:06:37 16° NNW 04:09:12 31° NNE 04:12:53 10° E
CZ-4B R/B 3.4 04:07:46 10° N 04:11:54 40° WNW 04:15:06 15° SW
Cosmos 1666 2.5 04:09:59 10° N 04:13:45 69° W 04:17:32 10° S
Cosmos 2221 Rocket 4.0 04:16:36 10° SSW 04:20:42 39° W 04:24:48 10° NNW
GPS 2-12 Rocket1 3.5 04:20:42 22° W 04:23:37 53° NNW 04:28:18 10° ENE
Ariane H10 3.0 04:23:38 17° SW 04:25:07 26° S 04:28:18 10° ESE
Cosmos 2360 4.2 04:20:09 10° SSW 04:25:49 88° WNW 04:31:30 10° NNE
Meteor 1-19 Rocket 4.2 04:21:19 10° SSW 04:26:47 60° W 04:32:24 10° N
Palapa 6 Rocket 3.3 04:29:07 19° W 04:31:21 38° SSW 04:35:08 10° SE
Cosmos 1867 3.5 04:26:54 10° SSW 04:32:19 84° WNW 04:37:46 10° NNE
Sich 1 Rocket 3.6 04:29:02 10° NNW 04:33:29 61° W 04:37:57 10° S
Cosmos 1697 Rocket 3.2 04:29:46 10° SW 04:34:58 38° WNW 04:40:11 10° N
Meteor 1-31 Rocket 4.4 04:35:40 10° NW 04:37:54 15° WNW 04:39:15 13° W
COSMO-SKYMED 1 4.3 04:34:46 10° SE 04:38:45 36° ENE 04:42:44 10° N
CZ-4B R/B 3.3 04:33:24 10° NNE 04:38:46 80° ESE 04:44:04 10° S
Lacrosse 5 rocket 3.3 04:37:52 13° WSW 04:39:02 14° WSW 04:41:26 10° SSW
Meteor 2-4 Rocket 3.6 04:38:46 10° SSW 04:44:09 67° W 04:49:27 10° N
BREEZE-M R/B 4.1 04:41:21 10° SSW 04:44:39 50° ESE 04:51:00 10° NE
CZ-3 R/B 3.1 04:19:22 10° WNW 04:45:42 71° NNE 04:52:02 10° ESE
USA 229 DEB 3.7 04:39:41 10° SW 04:46:00 55° WNW 04:52:26 10° NNE
USA 229 3.7 04:39:45 10° SW 04:46:05 56° WNW 04:52:31 10° NNE
Cosmos 1515 4.1 04:43:17 10° SSW 04:46:49 39° W 04:50:23 10° NNW
Lacrosse 5 3.0 04:43:21 10° NNW 04:48:11 47° ENE 04:53:02 10° SE
NOSS 3-1 (A) 3.3 04:45:31 10° SSW 04:50:44 78° ESE 04:56:10 10° NNE
CZ-2C R/B 4.2 04:49:05 10° NW 04:51:28 13° WNW 04:53:52 10° WSW
Cosmos 2227 Rocket 3.6 04:48:17 10° N 04:53:38 43° ENE 04:58:58 10° SE
ARIANE 5 R/B 3.5 05:05:40 10° W 05:27:45 50° SSW 05:31:47 10° ESE
